Flag for Germany Weather past 2 weeks in Cuxhaven, Lower Saxony, Germany

Now
57 °F

Partly cloudy.


Feels Like: 52 °F
Forecast: 55 / 61 °F
Wind: 25 mph from Northwest

Location: Nordholz

Current Time: Jul 30, 2015 at 6:10:11 AM

Latest Report: Jul 30, 2015 at 5:20 AM


Visibility: N/A

Pressure: 29.68 "Hg

Humidity: 82%

Dew point: 52 °F

Location of CuxhavenLocation

Historic Weather in Cuxhaven — Graph

°F

Cuxhaven temperature yesterday

Maximum temperature yesterday: 63 °F (at 12:20 PM)
Minimum temperature yesterday: 54 °F (at 6:20 PM)
Average temperature yesterday: 57 °F

Past Weeks' High & Low Weather Summary

 TemperatureHumidityPressure
High82 °F (Jul 17, 2:20 PM)100% (Jul 16, 2:20 AM)30.12 "Hg (Jul 16, 2:20 AM)
Low50 °F (Jul 24, 4:20 AM)50% (Jul 24, 4:20 PM)29.42 "Hg (Jul 25, 11:58 AM)
Average61 °F81%29.80 "Hg
* Reported Jul 15 4:20 AM — Jul 30 4:20 AM, Cuxhaven, Weather by CustomWeather, © 2015

Note: Actual official high and low records may vary slightly from our data, if they occured in-between our weather recording intervals... More about our weather records

Advertising

Cuxhaven weather history for previous 24 hours

 ConditionsComfort  
Time TempWeatherWind HumidityBarometerVisibility
4:20 AM
Thu, Jul 30
57 °FSprinkles. Partly cloudy.28 mph82%29.65 "HgN/A
3:20 AM57 °FLight rain. Partly cloudy.23 mph94%29.65 "HgN/A
2:20 AM57 °FLight rain. Partly cloudy.21 mph88%29.65 "HgN/A
1:20 AM57 °FLight rain. Partly cloudy.24 mph82%29.62 "HgN/A
12:20 AM57 °FLight rain. Partly cloudy.29 mph82%29.62 "Hg6 mi
11:20 PM
Wed, Jul 29
57 °FLight rain. Partly cloudy.28 mph82%29.62 "HgN/A
10:20 PM57 °FLight rain. Broken clouds.28 mph82%29.59 "HgN/A
9:55 PM55 °FLight rain. Fog.28 mph94%29.59 "Hg3 mi
9:20 PM55 °FRain. Fog.29 mph94%29.56 "Hg2 mi
8:20 PM54 °FRain. Fog.24 mph94%29.56 "Hg2 mi
7:46 PM54 °FRain. Fog.23 mph94%29.56 "Hg2 mi
7:20 PM55 °FRain. Fog.28 mph88%29.56 "Hg2 mi
7:00 PM55 °FLight rain. Broken clouds.22 mph88%29.56 "HgN/A
6:20 PM54 °FRain showers. Broken clouds.18 mph94%29.56 "Hg2 mi
5:20 PM57 °FBroken clouds.21 mph77%29.56 "HgN/A
4:20 PM55 °FBroken clouds.18 mph94%29.59 "HgN/A
4:03 PM59 °FRain showers. Partly sunny.22 mph72%29.56 "Hg2 mi
3:20 PM61 °FPartly sunny.25 mph63%29.56 "HgN/A
2:20 PM59 °FScattered showers. Broken clouds.21 mph72%29.59 "HgN/A
1:20 PM57 °FScattered showers. Broken clouds.20 mph77%29.59 "HgN/A
12:48 PM57 °FPartly sunny.24 mph77%29.59 "Hg4 mi
12:20 PM63 °FScattered clouds.22 mph64%29.56 "HgN/A
11:20 AM61 °FScattered clouds.22 mph68%29.56 "HgN/A
10:20 AM57 °FPassing clouds.17 mph77%29.59 "HgN/A
9:20 AM57 °FScattered clouds.17 mph77%29.59 "HgN/A
8:20 AM57 °FScattered clouds.17 mph82%29.59 "HgN/A
7:20 AM57 °FScattered clouds.14 mph88%29.59 "HgN/A
6:45 AM55 °FPassing clouds.15 mph94%29.59 "HgN/A
6:20 AM57 °FPassing clouds.15 mph88%29.59 "HgN/A
Weather by CustomWeather, © 2015

See weather overviewHow to use our weather pages